Worcester, MA

6:18 PM EDT on August 27, 2016 (GMT -0400)
Worcester Regional

Weather History for KORH - June, 2013

Change the Weather History Date:

Wednesday, June 19, 2013

  Actual Average Record
Temperature  
Mean Temperature 62 °F 66 °F  
Max Temperature 71 °F 75 °F 93 °F (1923)
Min Temperature 53 °F 57 °F 43 °F (1939)
Degree Days  
Heating Degree Days 3 2  
Month to date heating degree days 66 68  
Since 1 June heating degree days 66 68  
Since 1 July heating degree days 6278 6702  
Cooling Degree Days 0 3  
Month to date cooling degree days 28 42  
Year to date cooling degree days 52 64  
Since 1 June cooling degree days 28 42  
Growing Degree Days 12 (Base 50)    
Moisture  
Dew Point 47 °F    
Average Humidity 69    
Maximum Humidity 100    
Minimum Humidity 37    
Precipitation  
Precipitation 0.01 in 0.13 in 1.88 in (1934)
Month to date precipitation 9.38 2.82  
Year to date precipitation 26.19 22.05  
Snow  
Snow 0.00 in 0.00 in 0.00 in (2002)
Month to date snowfall 0.0 0.0  
Since 1 June snowfall 0.0 0.0  
Since 1 July snowfall 108.9 64.1  
Snow Depth 0.00 in    
Sea Level Pressure  
Sea Level Pressure 30.02 in    
Wind  
Wind Speed 8 mph (North)    
Max Wind Speed 15 mph    
Max Gust Speed 20 mph    
Visibility 10 miles    
Events Rain    
T = Trace of Precipitation, MM = Missing Value Source: NWS Daily Summary

Daily Weather History Graph

Daily Weather History Graph

Search for Another Location

Airport or City:

Trip Planner

Search our weather history database for the weather conditions in past years. The results will help you decide how hot, cold, wet, or windy it might be!

Date:

Astronomy

Jun. 19, 2013 Rise Set
Actual Time 5:10 AM EDT 8:27 PM EDT
Civil Twilight 4:36 AM EDT 9:01 PM EDT
Nautical Twilight 3:51 AM EDT 9:46 PM EDT
Astronomical Twilight 2:56 AM EDT 10:41 PM EDT
Moon 4:13 PM EDT (6/19) 1:57 AM EDT (6/19)
Length of Visible Light 16h 25m
Length of Day
15h 16m
Waxing Gibbous, 80% of the Moon is Illuminated
Jun 19
Waxing Gibbous
Jun 23
Full
Jun 30
Last Quarter
Jul 8
New
Jul 15
First Quarter

Hourly Weather History & Observations

Time (EDT) Temp. Dew Point Humidity Pressure Visibility Wind Dir Wind Speed Gust Speed Precip Events Conditions
12:26 AM 55.0 °F 54.0 °F 96% 29.94 in 5.0 mi North 6.9 mph - 0.06 in Rain Rain
12:54 AM 54.0 °F 53.1 °F 97% 29.94 in 7.0 mi North 5.8 mph - 0.11 in Rain Light Rain
1:54 AM 53.1 °F 50.0 °F 89% 29.93 in 10.0 mi NE 5.8 mph - 0.01 in Rain Light Rain
2:43 AM 53.1 °F 52.0 °F 96% 29.93 in 10.0 mi NNE 4.6 mph - 0.00 in   Overcast
2:54 AM 53.1 °F 52.0 °F 96% 29.93 in 10.0 mi NE 3.5 mph - 0.00 in   Overcast
3:12 AM 53.1 °F 52.0 °F 96% 29.92 in 10.0 mi NNE 4.6 mph - N/A   Overcast
3:41 AM 53.1 °F 52.0 °F 96% 29.92 in 10.0 mi North 4.6 mph - N/A   Overcast
3:54 AM 54.0 °F 53.1 °F 97% 29.93 in 10.0 mi North 6.9 mph - N/A   Overcast
4:54 AM 54.0 °F 53.1 °F 97% 29.94 in 10.0 mi North 11.5 mph - N/A   Clear
5:54 AM 54.0 °F 51.1 °F 90% 29.95 in 10.0 mi North 10.4 mph - N/A   Clear
6:54 AM 55.9 °F 48.0 °F 75% 29.96 in 10.0 mi NNE 12.7 mph - N/A   Clear
7:54 AM 57.9 °F 48.9 °F 72% 29.99 in 10.0 mi North 10.4 mph - N/A   Clear
8:54 AM 61.0 °F 48.9 °F 64% 30.01 in 10.0 mi NNE 5.8 mph - N/A   Clear
9:54 AM 64.0 °F 48.0 °F 56% 30.03 in 10.0 mi NNE 8.1 mph - N/A   Clear
10:54 AM 66.0 °F 46.9 °F 50% 30.04 in 10.0 mi NNE 6.9 mph - N/A   Clear
11:54 AM 66.9 °F 45.0 °F 45% 30.04 in 10.0 mi NE 8.1 mph - N/A   Clear
12:54 PM 68.0 °F 46.0 °F 45% 30.04 in 10.0 mi NNW 4.6 mph - N/A   Scattered Clouds
1:54 PM 68.0 °F 45.0 °F 43% 30.04 in 10.0 mi NNW 8.1 mph - N/A   Mostly Cloudy
2:54 PM 68.0 °F 46.9 °F 47% 30.05 in 10.0 mi North 5.8 mph - N/A   Mostly Cloudy
3:54 PM 69.1 °F 46.0 °F 44% 30.05 in 10.0 mi Variable 3.5 mph - N/A   Mostly Cloudy
4:54 PM 70.0 °F 42.1 °F 36% 30.06 in 10.0 mi West 9.2 mph - N/A   Clear
5:54 PM 70.0 °F 36.0 °F 29% 30.06 in 10.0 mi WNW 11.5 mph - N/A   Clear
6:54 PM 69.1 °F 39.9 °F 35% 30.08 in 10.0 mi NW 8.1 mph - N/A   Clear
7:54 PM 66.0 °F 42.1 °F 42% 30.09 in 10.0 mi NW 3.5 mph - N/A   Clear
8:54 PM 60.1 °F 45.0 °F 57% 30.12 in 10.0 mi NNW 4.6 mph - N/A   Clear
9:54 PM 59.0 °F 43.0 °F 55% 30.14 in 10.0 mi NNW 4.6 mph - N/A   Mostly Cloudy
10:54 PM 59.0 °F 43.0 °F 55% 30.15 in 10.0 mi NW 8.1 mph - N/A   Clear
11:54 PM 59.0 °F 43.0 °F 55% 30.17 in 10.0 mi NNW 4.6 mph - N/A   Scattered Clouds